C/2016 N4 ( MASTER )

Japanese version
Home page
Updated on December 17, 2017

---------------------------------------------------------------------

* Profile

Discovery Date July 15, 2016
Magnitude 16.8 mag
Discoverer Mobile Astronomical System of the Telescope-Robots (MASTER)

* Pictures

* Orbital Elements

Epoch 2017 Sept. 4.0 TT = JDT 2458000.5
T 2017 Sept. 16.59999 TT                                MPCW
q   3.1990981            (2000.0)            P               Q
z  +0.0001980      Peri.   55.95585     +0.58262377     -0.80666507
 +/-0.0000006      Node   354.03141     -0.14120895     +0.01973139
e   0.9993665      Incl.   72.55731     +0.80038089     +0.59067939
From 1252 observations 2016 July 15-2017 Oct. 31, mean residual 0".5.

* Finding Charts

* Magnitudes Graph

        m1 = 7.0 + 5 log d + 10.0 log r(t + 200)

---------------------------------------------------------------------

The orbital elements are published on M.P.E.C. 2017-V13.
The charts are made with StellaNavigator Ver.10 (AstroArts).
The magnitudes graphs are made with Comet for Windows.

---------------------------------------------------------------------

Copyright(C) Seiichi Yoshida (comet@aerith.net). All rights reserved.